Regional Weather Roundup
Issued by NWS Bismarck, ND

Home | Current Version | Previous Version | Text Only | Print | Product List | Glossary On
Versions: 1 2 3 4 5 6 7 8 9 10 11 12 13 14 15 16 17 18 19 20 21 22 23 24 25 26 27 28 29 30 31 32 33 34 35 36 37 38 39 40 41 42 43 44 45 46 47 48 49 50
506
ASUS43 KBIS 241710
RWRBIS

NWR BROADCAST TEXT
NATIONAL WEATHER SERVICE BISMARCK ND
1200 PM CDT WED AUG 24 2016

NOTE: "FAIR" INDICATES FEW OR NO CLOUDS BELOW 12,000 FEET WITH NO
SIGNIFICANT WEATHER AND/OR OBSTRUCTIONS TO VISIBILITY.


CITY           SKY/WX    TMP DP  RH WIND       PRES   REMARKS
WILLISTON      CLOUDY    62  46  55 W24G32    30.03R
MINOT          MOSUNNY   67  48  50 W18G35    29.92S
MINOT AFB      MOSUNNY   65  49  56 W23G30    29.91R
BISMARCK       CLOUDY    68  50  52 W21G30    30.02S
DICKINSON      PTSUNNY   65  44  46 W26G35    30.05R
GARRISON         N/A     64  48  56 W20G35    29.97S
HETTINGER ARPT CLOUDY    67  47  48 W26G35    30.13R
JAMESTOWN      MOSUNNY   67  53  61 W16G25    29.96R
CARRINGTON     PTSUNNY   66  52  59 W17G23    29.97S
HAZEN          CLOUDY    63  50  63 NW15      30.02S
LINTON         FAIR      68  55  64 W16G28    30.06S
MANDAN         PTSUNNY   66  48  52 W26G33    30.02S
OAKES            N/A    N/A N/A N/A MISG        N/A
STANLEY        CLOUDY    59  50  72 W17G29    30.01R
$$

CITY           SKY/WX    TMP DP  RH WIND       PRES   REMARKS
GRAND FORKS    MOSUNNY   71  54  54 W18G28    29.86R
GRAND FORKS AF SUNNY     71  54  55 W18G28    29.88R
DEVILS LAKE    PTSUNNY   66  52  60 W23       29.90R
FARGO          SUNNY     73  53  49 W21G30    29.90F
CAVALIER       FAIR      70  52  52 W15G23    29.83R
GRAFTON        FAIR      70  54  56 W21       29.87R
GWINNER        FAIR      70  54  56 W20G26    29.97R
LANGDON        CLOUDY    68  52  56 W21G28    29.86S
ROLLA          PTSUNNY   63  52  67 W20       29.87S
$$

CITY           SKY/WX    TMP DP  RH WIND       PRES   REMARKS
ABERDEEN       MOSUNNY   72  51  47 W16       30.02R
MOBRIDGE       CLOUDY    72  49  44 NW15G25   30.05S
BUFFALO          N/A     67  47  48 W21G29    30.11R
RAPID CITY     MOSUNNY   70  46  42 NW13      30.20S
GLASGOW        CLOUDY    56  45  66 NW26G36   30.15R
SIDNEY         PTSUNNY   63  46  54 W25G33    30.07R
WOLF POINT     CLOUDY    62  46  55 W25       30.11R
MILES CITY     CLOUDY    65  46  50 NW20      30.18S
BAKER          PTSUNNY   64  43  46 NW26G38   30.15R
$$

CITY           SKY/WX    TMP DP  RH WIND       PRES   REMARKS
BILLINGS       PTSUNNY   65  41  41 NW13      30.26F
GREAT FALLS    CLOUDY    57  42  57 N17       30.36R
REGINA         LGT RAIN  54  54 100 NW16G24   29.97R FOG
ESTEVAN        PTSUNNY   61  52  72 W20G26    29.93R
$$





USA.gov is the U.S. government's official web portal to all federal, state and local government web resources and services.